User: anonymous   Login
Location: Unspecified
(0.0000°N, 0.0000°E)
Time: 12:21:18
(UTC+00:00)
Language:

TERCEL - Orbit

View from above orbital plane
View from above orbital plane
View from above satellite
View from above satellite

Ground track
Ground track

The orbit data is extracted from the following two-line orbital elements,

1 20547U 90028B   17144.88650032 +.00000624 +00000-0 +24295-4 0  9994
2 20547 094.1009 116.2543 0084013 349.2644 010.6803 15.23860459496171
Epoch (UTC): 24 May 2017 21:16:33
Eccentricity: 0.0084013
inclination: 94.1009°
perigee height: 436 km
apogee height: 552 km
right ascension of ascending node: 116.2543°
argument of perigee: 349.2644°
revolutions per day: 15.23860459
mean anomaly at epoch: 10.6803°
orbit number at epoch: 49617

The dashed part of the orbit path shows where the satellite is in the earth's shadow,  

DLR